Regional Weather Roundup
Issued by NWS

Home | Current Version | Previous Version | Text Only | Print | Product List | Glossary On
Versions: 1 2 3 4 5 6 7 8 9 10 11 12 13 14 15 16 17 18 19 20 21 22 23 24 25 26 27 28 29 30 31 32 33 34 35 36 37 38 39 40 41 42 43 44 45 46 47 48 49 50
000
ASUS43 KDTX 011301
RWRMI
MICHIGAN HOURLY REGIONAL WEATHER ROUNDUP
NATIONAL WEATHER SERVICE DETROIT/PONTIAC MI
800 AM EST SUN FEB 01 2015

NOTE: "FAIR" INDICATES FEW OR NO CLOUDS BELOW 12,000 FEET WITH NO
SIGNIFICANT WEATHER AND/OR OBSTRUCTION TO VISIBILITY.

MIZ047>049-052>055-059>063-066>070-074>076-081>083-011400-
SOUTHEAST LOWER MICHIGAN

CITY           SKY/WX    TMP DP  RH WIND       PRES   REMARKS
ADRIAN         LGT SNOW  27  25  92 E14       30.12F VSB 1   WCI  16
ALMA           LGT SNOW  16  14  92 NE16G22   30.20F WCI   1
ANN ARBOR      LGT SNOW  25  22  88 NE13      30.14F FOG     WCI  14
BAD AXE        FLURRIES  16  12  86 NE14      30.24R WCI   1
CARO           LGT SNOW  18  15  86 NE5       30.22S WCI  11
DETROIT CITY   LGT SNOW  24  19  81 NE6       30.19R WCI  17
DETROIT        LGT SNOW  24  21  88 N9        30.17F FOG     WCI  14
FLINT          LGT SNOW  20  16  84 NE9       30.19S VSB 3/4 WCI   9
GROSSE ILE     LGT SNOW  25  21  86 NE14      30.16S WCI  13
HILLSDALE      LGT SNOW  29  28  97 E12       30.07F WCI  19
HOWELL         LGT SNOW  19  18  93 NE9       30.14F WCI   9

CITY           SKY/WX    TMP DP  RH WIND       PRES   REMARKS
JACKSON        LGT SNOW  24  21  88 E10       30.11F VSB 3/4 WCI  14
LAMBERTVILLE   LGT SNOW  28  27  93 E7        30.13F WCI  21
LANSING        LGT SNOW  18  14  84 NE14      30.16F FOG     WCI   4
LAPEER         LGT SNOW  20  18  91 NE6       30.19S WCI  12
MASON          LGT SNOW  19  16  88 NE12      30.14F WCI   7
MONROE         LGT SNOW  27  25  93 NE9       30.13F WCI  17
MT. CLEMENS    LGT SNOW  22  19  91 N8        30.16S FOG     WCI  12
PONTIAC        LGT SNOW  20  17  88 NE7       30.15F VSB 1   WCI  11
PORT HOPE        N/A     16   9  74 NE20G28   30.24S WCI  -1
PORT HURON     FLURRIES  21  18  86 NE14G20   30.21S WCI   8
TRI CITIES     LGT SNOW  18  13  80 NE20      30.23S VSB 3/4 WCI   2
TROY           LGT SNOW  23  20  87 NE7       30.20S VSB 1   WCI  15
SAGINAW HB     LGT SNOW  19  16  86 NE14      30.22S WCI   6
$$
MIZ043>046-050>051-056>058-064>065-071>073-077>080-011400-
SOUTHWEST LOWER MICHIGAN

CITY           SKY/WX    TMP DP  RH WIND       PRES   REMARKS
BATTLE CREEK   LGT SNOW  25  21  85 E12       30.08F VSB 3/4 WCI  14
BENTON HARBOR  SNOW      26  25  96 E13       30.03F VSB 1/2 WCI  15
BIG RAPIDS     LGT SNOW  14  12  91 NE3       30.18S
COLDWATER      LGT SNOW  27  26  96 E8        30.06F WCI  19
FREMONT        LGT SNOW  16  12  86 NE13      30.16F WCI   2
HOLLAND        LGT SNOW  23  18  81 E17G23    30.11S VSB 1   WCI   9
GRAND RAPIDS   LGT SNOW  18  14  84 E16       30.13F VSB 1   WCI   3
IONIA          LGT SNOW  19  16  88 E16G22    30.15S WCI   4
KALAMAZOO      SNOW      25  22  88 E8        30.08F VSB 1/2 WCI  16
LUDINGTON      LGT SNOW  16  10  80 E8        30.21S WCI   5
MARSHALL       LGT SNOW  23  21  93 E8        30.09F WCI  14
MOUNT PLEASANT LGT SNOW  15  12  86 NE3       30.21S
MUSKEGON       LGT SNOW  18  13  80 NE16G25   30.14F WCI   3
SOUTH HAVEN    LGT SNOW  27  24  89 E10G18    30.06F VSB 1   WCI  17
$$
MIZ016>042-011400-
NORTHERN LOWER MICHIGAN

CITY           SKY/WX    TMP DP  RH WIND       PRES   REMARKS
ALPENA         CLOUDY     6   1  80 NE13      30.33S WCI -10
BEAVER ISLAND  CLOUDY     0  -7  74 NE5       30.33F WCI -10
BELLAIRE       CLOUDY     9   2  73 NE10      30.28F WCI  -5
CADILLAC       CLOUDY    10   5  79 NE12      30.16S WCI  -4
CHARLEVOIX     CLOUDY     5   0  78 NE13      30.33F WCI -11
FRANKFORT      CLOUDY    12   6  76 NE7       30.24S WCI   2
GAYLORD        CLOUDY     4   0  83 NE12      30.21F WCI -12
GRAYLING       CLOUDY     8   2  77 E13       30.23F WCI  -8
HARBOR SPRINGS CLOUDY     4  -2  77 NE9G17    30.30F WCI -11
HOUGHTON LAKE  CLOUDY     9   3  77 E14       30.21S WCI  -7
MANISTEE       CLOUDY    16   3  57 E13G20    30.22R WCI   2
OSCODA         FLURRIES  13   7  78 NE14      30.27F WCI  -2
PELLSTON       CLOUDY     2  -4  76 NE14G20   30.33F WCI -16
TRAVERSE CITY  CLOUDY    11   4  73 NE9       30.26S WCI  -2
$$
MIZ007>008-015-011400-
EASTERN UPPER MICHIGAN

CITY           SKY/WX    TMP DP  RH WIND       PRES   REMARKS
KINROSS        MOCLDY    -9 -17  70 NE8       30.37F WCI -26
MACKINAC ISLAN CLOUDY    -3 -10  69 NE12      30.35F WCI -21
NEWBERRY       PTCLDY    -9 -13  81 NE8       30.35S WCI -25
S. S. MARIE    MOCLDY   -11 -21  61 E8        30.39F WCI -28
$$
MIZ004>006-011>014-085-011400-
CENTRAL UPPER MICHIGAN

CITY           SKY/WX    TMP DP  RH WIND       PRES   REMARKS
MANISTIQUE     MOCLDY     1  -6  73 NE10      30.33F WCI -16
ESCANABA       CLOUDY     7   0  72 NE14      30.32R WCI -10
MENOMINEE      CLOUDY    10   3  72 E17       30.28R WCI  -7
SAWYER-GWINN   LGT SNOW   9   3  78 NE8       30.27F WCI  -4
$$
MIZ001>003-009>011-084-011400-
WESTERN UPPER MICHIGAN

CITY           SKY/WX    TMP DP  RH WIND       PRES   REMARKS
IRON MOUNTAIN  CLOUDY     9   2  73 NE6       30.25S WCI  -1
HOUGHTON       MOCLDY     3  -2  79 NE7       30.33F WCI  -9
COPPER HARBOR    N/A     10   2  69 E10G18    30.39F WCI  -4
IRONWOOD       CLOUDY     1   1 100 E6        30.28R WCI -10
$$

ABBREVIATIONS USED IN REMARKS
   TC - TEMPERATURE IN CELSIUS
  WCI - WIND CHILL INDEX
   HX - HEAT INDEX
  VSB - VISIBILITY



USA.gov is the U.S. government's official web portal to all federal, state and local government web resources and services.